Year,Month,Day,Hour,Minute,Value (Times are PST for temperature in C)
2021,04,20,00,00,11.10
2021,04,20,00,01,11.10
2021,04,20,00,02,11.10
2021,04,20,00,03,11.20
2021,04,20,00,04,11.20
2021,04,20,00,05,11.20
2021,04,20,00,06,11.20
2021,04,20,00,07,11.20
2021,04,20,00,08,11.10
2021,04,20,00,09,11.10
2021,04,20,00,10,11.20
2021,04,20,00,11,11.30
2021,04,20,00,12,11.30
2021,04,20,00,13,11.30
2021,04,20,00,14,11.30
2021,04,20,00,15,11.30
2021,04,20,00,16,11.30
2021,04,20,00,17,11.30
2021,04,20,00,18,11.20
2021,04,20,00,19,11.20
2021,04,20,00,20,11.20
2021,04,20,00,21,11.10
2021,04,20,00,22,11.10
2021,04,20,00,23,11.10
2021,04,20,00,24,11.00
2021,04,20,00,25,11.00
2021,04,20,00,26,11.00
2021,04,20,00,27,10.90
2021,04,20,00,28,10.90
2021,04,20,00,29,10.90
2021,04,20,00,30,10.80
2021,04,20,00,31,10.80
2021,04,20,00,32,10.80
2021,04,20,00,33,10.80
2021,04,20,00,34,10.80
2021,04,20,00,35,10.80
2021,04,20,00,36,10.70
2021,04,20,00,37,10.70
2021,04,20,00,38,10.70
2021,04,20,00,39,10.70
2021,04,20,00,40,10.70
2021,04,20,00,41,10.70
2021,04,20,00,42,10.60
2021,04,20,00,43,10.60
2021,04,20,00,44,10.60
2021,04,20,00,45,10.60
2021,04,20,00,46,10.60
2021,04,20,00,47,10.50
2021,04,20,00,48,10.50
2021,04,20,00,49,10.50
2021,04,20,00,50,10.50
2021,04,20,00,51,10.50
2021,04,20,00,52,10.40
2021,04,20,00,53,10.40
2021,04,20,00,54,10.40
2021,04,20,00,55,10.40
2021,04,20,00,56,10.40
2021,04,20,00,57,10.40
2021,04,20,00,58,10.40
2021,04,20,00,59,10.40
2021,04,20,01,00,10.40
2021,04,20,01,01,10.40
2021,04,20,01,02,10.40
2021,04,20,01,03,10.40
2021,04,20,01,04,10.40
2021,04,20,01,05,10.40
2021,04,20,01,06,10.40
2021,04,20,01,07,10.40
2021,04,20,01,08,10.40
2021,04,20,01,09,10.40
2021,04,20,01,10,10.40
2021,04,20,01,11,10.40
2021,04,20,01,12,10.40
2021,04,20,01,13,10.40
2021,04,20,01,14,10.40
2021,04,20,01,15,10.40
2021,04,20,01,16,10.40
2021,04,20,01,17,10.40
2021,04,20,01,18,10.40
2021,04,20,01,19,10.40
2021,04,20,01,20,10.30
2021,04,20,01,21,10.30
2021,04,20,01,22,10.30
2021,04,20,01,23,10.30
2021,04,20,01,24,10.20
2021,04,20,01,25,10.20
2021,04,20,01,26,10.20
2021,04,20,01,27,10.20
2021,04,20,01,28,10.20
2021,04,20,01,29,10.20
2021,04,20,01,30,10.20
2021,04,20,01,31,10.20
2021,04,20,01,32,10.20
2021,04,20,01,33,10.20
2021,04,20,01,34,10.20
2021,04,20,01,35,10.20
2021,04,20,01,36,10.20
2021,04,20,01,37,10.20
2021,04,20,01,38,10.20
2021,04,20,01,39,10.20
2021,04,20,01,40,10.20
2021,04,20,01,41,10.20
2021,04,20,01,42,10.30
2021,04,20,01,43,10.30
2021,04,20,01,44,10.40
2021,04,20,01,45,10.40
2021,04,20,01,46,10.40
2021,04,20,01,47,10.40
2021,04,20,01,48,10.40
2021,04,20,01,49,10.40
2021,04,20,01,50,10.40
2021,04,20,01,51,10.40
2021,04,20,01,52,10.40
2021,04,20,01,53,10.40
2021,04,20,01,54,10.40
2021,04,20,01,55,10.40
2021,04,20,01,56,10.50
2021,04,20,01,57,10.50
2021,04,20,01,58,10.60
2021,04,20,01,59,10.60
2021,04,20,02,00,10.60
2021,04,20,02,01,10.60
2021,04,20,02,02,10.60
2021,04,20,02,03,10.60
2021,04,20,02,04,10.60
2021,04,20,02,05,10.60
2021,04,20,02,06,10.60
2021,04,20,02,07,10.60
2021,04,20,02,08,10.60
2021,04,20,02,09,10.50
2021,04,20,02,10,10.60
2021,04,20,02,11,10.60
2021,04,20,02,12,10.70
2021,04,20,02,13,10.70
2021,04,20,02,14,10.80
2021,04,20,02,15,10.80
2021,04,20,02,16,10.80
2021,04,20,02,17,10.80
2021,04,20,02,18,10.80
2021,04,20,02,19,10.70
2021,04,20,02,20,10.70
2021,04,20,02,21,10.80
2021,04,20,02,22,10.70
2021,04,20,02,23,10.70
2021,04,20,02,24,10.70
2021,04,20,02,25,10.70
2021,04,20,02,26,10.60
2021,04,20,02,27,10.60
2021,04,20,02,28,10.60
2021,04,20,02,29,10.60
2021,04,20,02,30,10.50
2021,04,20,02,31,10.50
2021,04,20,02,32,10.50
2021,04,20,02,33,10.40
2021,04,20,02,34,10.40
2021,04,20,02,35,10.40
2021,04,20,02,36,10.40
2021,04,20,02,37,10.40
2021,04,20,02,38,10.40
2021,04,20,02,39,10.40
2021,04,20,02,40,10.40
2021,04,20,02,41,10.40
2021,04,20,02,42,10.40
2021,04,20,02,43,10.40
2021,04,20,02,44,10.40
2021,04,20,02,45,10.50
2021,04,20,02,46,10.50
2021,04,20,02,47,10.50
2021,04,20,02,48,10.50
2021,04,20,02,49,10.60
2021,04,20,02,50,10.60
2021,04,20,02,51,10.60
2021,04,20,02,52,10.60
2021,04,20,02,53,10.60
2021,04,20,02,54,10.60
2021,04,20,02,55,10.60
2021,04,20,02,56,10.60
2021,04,20,02,57,10.60
2021,04,20,02,58,10.50
2021,04,20,02,59,10.50
2021,04,20,03,00,10.50
2021,04,20,03,01,10.60
2021,04,20,03,02,10.60
2021,04,20,03,03,10.60
2021,04,20,03,04,10.50
2021,04,20,03,05,10.50
2021,04,20,03,06,10.50
2021,04,20,03,07,10.40
2021,04,20,03,08,10.40
2021,04,20,03,09,10.40
2021,04,20,03,10,10.30
2021,04,20,03,11,10.30
2021,04,20,03,12,10.30
2021,04,20,03,13,10.20
2021,04,20,03,14,10.20
2021,04,20,03,15,10.20
2021,04,20,03,16,10.20
2021,04,20,03,17,10.20
2021,04,20,03,18,10.20
2021,04,20,03,19,10.10
2021,04,20,03,20,10.10
2021,04,20,03,21,10.10
2021,04,20,03,22,10.00
2021,04,20,03,23,10.00
2021,04,20,03,24,9.90
2021,04,20,03,25,9.90
2021,04,20,03,26,9.90
2021,04,20,03,27,9.80
2021,04,20,03,28,9.80
2021,04,20,03,29,9.80
2021,04,20,03,30,9.80
2021,04,20,03,31,9.80
2021,04,20,03,32,9.80
2021,04,20,03,33,9.80
2021,04,20,03,34,9.80
2021,04,20,03,35,9.90
2021,04,20,03,36,9.90
2021,04,20,03,37,10.00
2021,04,20,03,38,10.00
2021,04,20,03,39,10.00
2021,04,20,03,40,10.10
2021,04,20,03,41,10.10
2021,04,20,03,42,10.10
2021,04,20,03,43,10.10
2021,04,20,03,44,10.10
2021,04,20,03,45,10.10
2021,04,20,03,46,10.10
2021,04,20,03,47,10.10
2021,04,20,03,48,10.00
2021,04,20,03,49,10.00
2021,04,20,03,50,10.00
2021,04,20,03,51,10.00
2021,04,20,03,52,10.00
2021,04,20,03,53,10.10
2021,04,20,03,54,10.10
2021,04,20,03,55,10.10
2021,04,20,03,56,10.00
2021,04,20,03,57,10.00
2021,04,20,03,58,9.90
2021,04,20,03,59,10.00
2021,04,20,04,00,10.00
2021,04,20,04,01,10.00
2021,04,20,04,02,10.00
2021,04,20,04,03,10.00
2021,04,20,04,04,10.00
2021,04,20,04,05,9.90
2021,04,20,04,06,9.90
2021,04,20,04,07,9.90
2021,04,20,04,08,9.90
2021,04,20,04,09,9.80
2021,04,20,04,10,9.90
2021,04,20,04,11,9.80
2021,04,20,04,12,9.80
2021,04,20,04,13,9.80
2021,04,20,04,14,9.80
2021,04,20,04,15,9.80
2021,04,20,04,16,9.80
2021,04,20,04,17,9.80
2021,04,20,04,18,9.80
2021,04,20,04,19,9.80
2021,04,20,04,20,9.80
2021,04,20,04,21,9.80
2021,04,20,04,22,9.80
2021,04,20,04,23,9.80
2021,04,20,04,24,9.80
2021,04,20,04,25,9.80
2021,04,20,04,26,9.80
2021,04,20,04,27,9.80
2021,04,20,04,28,9.80
2021,04,20,04,29,9.80
2021,04,20,04,30,9.80
2021,04,20,04,31,9.80
2021,04,20,04,32,9.80
2021,04,20,04,33,9.80
2021,04,20,04,34,9.80
2021,04,20,04,35,9.80
2021,04,20,04,36,9.80
2021,04,20,04,37,9.80
2021,04,20,04,38,9.80
2021,04,20,04,39,9.80
2021,04,20,04,40,9.70
2021,04,20,04,41,9.70
2021,04,20,04,42,9.70
2021,04,20,04,43,9.70
2021,04,20,04,44,9.70
2021,04,20,04,45,9.80
2021,04,20,04,46,9.80
2021,04,20,04,47,9.90
2021,04,20,04,48,9.90
2021,04,20,04,49,9.90
2021,04,20,04,50,9.90
2021,04,20,04,51,10.00
2021,04,20,04,52,9.90
2021,04,20,04,53,9.90
2021,04,20,04,54,9.90
2021,04,20,04,55,9.80
2021,04,20,04,56,9.80
2021,04,20,04,57,9.80
2021,04,20,04,58,9.70
2021,04,20,04,59,9.70
2021,04,20,05,00,9.70
2021,04,20,05,01,9.70
2021,04,20,05,02,9.60
2021,04,20,05,03,9.70
2021,04,20,05,04,9.70
2021,04,20,05,05,9.70
2021,04,20,05,06,9.70
2021,04,20,05,07,9.70
2021,04,20,05,08,9.70
2021,04,20,05,09,9.70
2021,04,20,05,10,9.70
2021,04,20,05,11,9.70
2021,04,20,05,12,9.70
2021,04,20,05,13,9.70
2021,04,20,05,14,9.70
2021,04,20,05,15,9.80
2021,04,20,05,16,9.80
2021,04,20,05,17,9.80
2021,04,20,05,18,9.80
2021,04,20,05,19,9.80
2021,04,20,05,20,9.80
2021,04,20,05,21,9.90
2021,04,20,05,22,9.90
2021,04,20,05,23,9.90
2021,04,20,05,24,9.90
2021,04,20,05,25,9.90
2021,04,20,05,26,9.90
2021,04,20,05,27,9.90
2021,04,20,05,28,9.90
2021,04,20,05,29,9.90
2021,04,20,05,30,9.90
2021,04,20,05,31,9.80
2021,04,20,05,32,9.80
2021,04,20,05,33,9.80
2021,04,20,05,34,9.80
2021,04,20,05,35,9.80
2021,04,20,05,36,9.80
2021,04,20,05,37,9.80
2021,04,20,05,38,9.80
2021,04,20,05,39,9.70
2021,04,20,05,40,9.70
2021,04,20,05,41,9.70
2021,04,20,05,42,9.70
2021,04,20,05,43,9.60
2021,04,20,05,44,9.70
2021,04,20,05,45,9.60
2021,04,20,05,46,9.70
2021,04,20,05,47,9.60
2021,04,20,05,48,9.60
2021,04,20,05,49,9.60
2021,04,20,05,50,9.60
2021,04,20,05,51,9.60
2021,04,20,05,52,9.50
2021,04,20,05,53,9.50
2021,04,20,05,54,9.50
2021,04,20,05,55,9.50
2021,04,20,05,56,9.50
2021,04,20,05,57,9.50
2021,04,20,05,58,9.40
2021,04,20,05,59,9.40
2021,04,20,06,00,9.40
2021,04,20,06,01,9.40
2021,04,20,06,02,9.40
2021,04,20,06,03,9.40
2021,04,20,06,04,9.40
2021,04,20,06,05,9.40
2021,04,20,06,06,9.30
2021,04,20,06,07,9.40
2021,04,20,06,08,9.40
2021,04,20,06,09,9.40
2021,04,20,06,10,9.30
2021,04,20,06,11,9.30
2021,04,20,06,12,9.30
2021,04,20,06,13,9.30
2021,04,20,06,14,9.30
2021,04,20,06,15,9.30
2021,04,20,06,16,9.30
2021,04,20,06,17,9.30
2021,04,20,06,18,9.30
2021,04,20,06,19,9.30
2021,04,20,06,20,9.30
2021,04,20,06,21,9.30
2021,04,20,06,22,9.20
2021,04,20,06,23,9.20
2021,04,20,06,24,9.20
2021,04,20,06,25,9.10
2021,04,20,06,26,9.10
2021,04,20,06,27,9.10
2021,04,20,06,28,9.10
2021,04,20,06,29,9.10
2021,04,20,06,30,9.00
2021,04,20,06,31,9.00
2021,04,20,06,32,9.00
2021,04,20,06,33,9.00
2021,04,20,06,34,9.00
2021,04,20,06,35,9.00
2021,04,20,06,36,9.00
2021,04,20,06,37,9.00
2021,04,20,06,38,9.10
2021,04,20,06,39,9.10
2021,04,20,06,40,9.10
2021,04,20,06,41,9.10
2021,04,20,06,42,9.10
2021,04,20,06,43,9.10
2021,04,20,06,44,9.10
2021,04,20,06,45,9.10
2021,04,20,06,46,9.10
2021,04,20,06,47,9.10
2021,04,20,06,48,9.10
2021,04,20,06,49,9.10
2021,04,20,06,50,9.10
2021,04,20,06,51,9.10
2021,04,20,06,52,9.10
2021,04,20,06,53,9.10
2021,04,20,06,54,9.10
2021,04,20,06,55,9.10
2021,04,20,06,56,9.00
2021,04,20,06,57,9.00
2021,04,20,06,58,9.00
2021,04,20,06,59,9.00
2021,04,20,07,00,9.00
2021,04,20,07,01,9.00
2021,04,20,07,02,9.00
2021,04,20,07,03,9.00
2021,04,20,07,04,9.00
2021,04,20,07,05,9.10
2021,04,20,07,06,9.10
2021,04,20,07,07,9.10
2021,04,20,07,08,9.10
2021,04,20,07,09,9.10
2021,04,20,07,10,9.10
2021,04,20,07,11,9.10
2021,04,20,07,12,9.10
2021,04,20,07,13,9.10
2021,04,20,07,14,9.20
2021,04,20,07,15,9.20
2021,04,20,07,16,9.20
2021,04,20,07,17,9.20
2021,04,20,07,18,9.20
2021,04,20,07,19,9.20
2021,04,20,07,20,9.20
2021,04,20,07,21,9.20
2021,04,20,07,22,9.20
2021,04,20,07,23,9.30
2021,04,20,07,24,9.30
2021,04,20,07,25,9.30
2021,04,20,07,26,9.30
2021,04,20,07,27,9.30
2021,04,20,07,28,9.30
2021,04,20,07,29,9.40
2021,04,20,07,30,9.40
2021,04,20,07,31,9.40
2021,04,20,07,32,9.40
2021,04,20,07,33,9.50
2021,04,20,07,34,9.50
2021,04,20,07,35,9.50
2021,04,20,07,36,9.50
2021,04,20,07,37,9.60
2021,04,20,07,38,9.60
2021,04,20,07,39,9.60
2021,04,20,07,40,9.60
2021,04,20,07,41,9.60
2021,04,20,07,42,9.70
2021,04,20,07,43,9.70
2021,04,20,07,44,9.80
2021,04,20,07,45,9.80
2021,04,20,07,46,9.80
2021,04,20,07,47,9.90
2021,04,20,07,48,9.90
2021,04,20,07,49,10.00
2021,04,20,07,50,10.10
2021,04,20,07,51,10.10
2021,04,20,07,52,10.20
2021,04,20,07,53,10.30
2021,04,20,07,54,10.30
2021,04,20,07,55,10.40
2021,04,20,07,56,10.40
2021,04,20,07,57,10.50
2021,04,20,07,58,10.60
2021,04,20,07,59,10.60
2021,04,20,08,00,10.70
2021,04,20,08,01,10.70
2021,04,20,08,02,10.80
2021,04,20,08,03,10.80
2021,04,20,08,04,10.90
2021,04,20,08,05,10.90
2021,04,20,08,06,11.00
2021,04,20,08,07,11.00
2021,04,20,08,08,11.10
2021,04,20,08,09,11.10
2021,04,20,08,10,11.10
2021,04,20,08,11,11.20
2021,04,20,08,12,11.20
2021,04,20,08,13,11.30
2021,04,20,08,14,11.30
2021,04,20,08,15,11.30
2021,04,20,08,16,11.40
2021,04,20,08,17,11.40
2021,04,20,08,18,11.50
2021,04,20,08,19,11.60
2021,04,20,08,20,11.60
2021,04,20,08,21,11.60
2021,04,20,08,22,11.70
2021,04,20,08,23,11.70
2021,04,20,08,24,11.70
2021,04,20,08,25,11.80
2021,04,20,08,26,11.80
2021,04,20,08,27,11.80
2021,04,20,08,28,11.90
2021,04,20,08,29,12.00
2021,04,20,08,30,12.00
2021,04,20,08,31,12.10
2021,04,20,08,32,12.10
2021,04,20,08,33,12.20
2021,04,20,08,34,12.30
2021,04,20,08,35,12.40
2021,04,20,08,36,12.40
2021,04,20,08,37,12.60
2021,04,20,08,38,12.70
2021,04,20,08,39,12.80
2021,04,20,08,40,12.80
2021,04,20,08,41,12.80
2021,04,20,08,42,12.80
2021,04,20,08,43,12.90
2021,04,20,08,44,12.90
2021,04,20,08,45,12.90
2021,04,20,08,46,12.90
2021,04,20,08,47,12.90
2021,04,20,08,48,12.80
2021,04,20,08,49,12.80
2021,04,20,08,50,12.80
2021,04,20,08,51,12.90
2021,04,20,08,52,12.90
2021,04,20,08,53,12.90
2021,04,20,08,54,12.90
2021,04,20,08,55,13.00
2021,04,20,08,56,13.00
2021,04,20,08,57,13.00
2021,04,20,08,58,13.00
2021,04,20,08,59,13.10
2021,04,20,09,00,13.10
2021,04,20,09,01,13.10
2021,04,20,09,02,13.20
2021,04,20,09,03,13.20
2021,04,20,09,04,13.30
2021,04,20,09,05,13.40
2021,04,20,09,06,13.40
2021,04,20,09,07,13.50
2021,04,20,09,08,13.50
2021,04,20,09,09,13.60
2021,04,20,09,10,13.60
2021,04,20,09,11,13.70
2021,04,20,09,12,13.80
2021,04,20,09,13,13.80
2021,04,20,09,14,13.80
2021,04,20,09,15,13.80
2021,04,20,09,16,13.80
2021,04,20,09,17,13.80
2021,04,20,09,18,13.80
2021,04,20,09,19,13.80
2021,04,20,09,20,13.80
2021,04,20,09,21,13.80
2021,04,20,09,22,13.90
2021,04,20,09,23,14.00
2021,04,20,09,24,14.10
2021,04,20,09,25,14.20
2021,04,20,09,26,14.20
2021,04,20,09,27,14.30
2021,04,20,09,28,14.30
2021,04,20,09,29,14.30
2021,04,20,09,30,14.30
2021,04,20,09,31,14.40
2021,04,20,09,32,14.40
2021,04,20,09,33,14.50
2021,04,20,09,34,14.50
2021,04,20,09,35,14.60
2021,04,20,09,36,14.70
2021,04,20,09,37,14.80
2021,04,20,09,38,14.80
2021,04,20,09,39,14.80
2021,04,20,09,40,14.80
2021,04,20,09,41,14.90
2021,04,20,09,42,14.90
2021,04,20,09,43,14.80
2021,04,20,09,44,14.80
2021,04,20,09,45,14.80
2021,04,20,09,46,14.80
2021,04,20,09,47,14.90
2021,04,20,09,48,15.00
2021,04,20,09,49,15.10
2021,04,20,09,50,15.20
2021,04,20,09,51,15.20
2021,04,20,09,52,15.30
2021,04,20,09,53,15.30
2021,04,20,09,54,15.30
2021,04,20,09,55,15.30
2021,04,20,09,56,15.30
2021,04,20,09,57,15.20
2021,04,20,09,58,15.20
2021,04,20,09,59,15.20
2021,04,20,10,00,15.30
2021,04,20,10,01,15.40
2021,04,20,10,02,15.60
2021,04,20,10,03,15.70
2021,04,20,10,04,15.70
2021,04,20,10,05,15.80
2021,04,20,10,06,15.80
2021,04,20,10,07,15.80
2021,04,20,10,08,15.80
2021,04,20,10,09,15.80
2021,04,20,10,10,15.80
2021,04,20,10,11,15.90
2021,04,20,10,12,15.90
2021,04,20,10,13,15.90
2021,04,20,10,14,16.00
2021,04,20,10,15,16.00
2021,04,20,10,16,16.00
2021,04,20,10,17,16.00
2021,04,20,10,18,16.00
2021,04,20,10,19,16.00
2021,04,20,10,20,15.90
2021,04,20,10,21,16.00
2021,04,20,10,22,16.00
2021,04,20,10,23,15.90
2021,04,20,10,24,15.80
2021,04,20,10,25,15.80
2021,04,20,10,26,15.70
2021,04,20,10,27,15.60
2021,04,20,10,28,15.60
2021,04,20,10,29,15.60
2021,04,20,10,30,15.70
2021,04,20,10,31,15.70
2021,04,20,10,32,15.80
2021,04,20,10,33,15.80
2021,04,20,10,34,15.80
2021,04,20,10,35,15.80
2021,04,20,10,36,15.80
2021,04,20,10,37,15.80
2021,04,20,10,38,15.80
2021,04,20,10,39,15.90
2021,04,20,10,40,16.00
2021,04,20,10,41,16.10
2021,04,20,10,42,16.10
2021,04,20,10,43,16.10
2021,04,20,10,44,16.00
2021,04,20,10,45,15.90
2021,04,20,10,46,15.90
2021,04,20,10,47,16.00
2021,04,20,10,48,16.00
2021,04,20,10,49,16.00
2021,04,20,10,50,16.00
2021,04,20,10,51,15.90
2021,04,20,10,52,15.90
2021,04,20,10,53,15.90
2021,04,20,10,54,16.00
2021,04,20,10,55,16.10
2021,04,20,10,56,16.10
2021,04,20,10,57,16.20
2021,04,20,10,58,16.30
2021,04,20,10,59,16.40
2021,04,20,11,00,16.50
2021,04,20,11,01,16.50
2021,04,20,11,02,16.60
2021,04,20,11,03,16.60
2021,04,20,11,04,16.60
2021,04,20,11,05,16.70
2021,04,20,11,06,16.80
2021,04,20,11,07,16.90
2021,04,20,11,08,16.90
2021,04,20,11,09,17.00
2021,04,20,11,10,17.10
2021,04,20,11,11,17.10
2021,04,20,11,12,17.20
2021,04,20,11,13,17.20
2021,04,20,11,14,17.30
2021,04,20,11,15,17.30
2021,04,20,11,16,17.40
2021,04,20,11,17,17.40
2021,04,20,11,18,17.50
2021,04,20,11,19,17.40
2021,04,20,11,20,17.30
2021,04,20,11,21,17.30
2021,04,20,11,22,17.30
2021,04,20,11,23,17.30
2021,04,20,11,24,17.40
2021,04,20,11,25,17.50
2021,04,20,11,26,17.70
2021,04,20,11,27,17.70
2021,04,20,11,28,17.80
2021,04,20,11,29,17.80
2021,04,20,11,30,17.80
2021,04,20,11,31,17.90
2021,04,20,11,32,17.90
2021,04,20,11,33,17.90
2021,04,20,11,34,17.90
2021,04,20,11,35,17.90
2021,04,20,11,36,17.80
2021,04,20,11,37,17.80
2021,04,20,11,38,17.80
2021,04,20,11,39,17.90
2021,04,20,11,40,17.80
2021,04,20,11,41,17.60
2021,04,20,11,42,17.50
2021,04,20,11,43,17.30
2021,04,20,11,44,17.00
2021,04,20,11,45,16.90
2021,04,20,11,46,16.80
2021,04,20,11,47,16.70
2021,04,20,11,48,16.70
2021,04,20,11,49,16.60
2021,04,20,11,50,16.60
2021,04,20,11,51,16.60
2021,04,20,11,52,16.60
2021,04,20,11,53,16.60
2021,04,20,11,54,16.50
2021,04,20,11,55,16.40
2021,04,20,11,56,16.30
2021,04,20,11,57,16.20
2021,04,20,11,58,16.20
2021,04,20,11,59,16.20
2021,04,20,12,00,16.10
2021,04,20,12,01,16.10
2021,04,20,12,02,16.20
2021,04,20,12,03,16.20
2021,04,20,12,04,16.20
2021,04,20,12,05,16.20
2021,04,20,12,06,16.30
2021,04,20,12,07,16.30
2021,04,20,12,08,16.40
2021,04,20,12,09,16.50
2021,04,20,12,10,16.60
2021,04,20,12,11,16.80
2021,04,20,12,12,16.80
2021,04,20,12,13,16.90
2021,04,20,12,14,16.90
2021,04,20,12,15,16.90
2021,04,20,12,16,16.90
2021,04,20,12,17,16.90
2021,04,20,12,18,16.90
2021,04,20,12,19,16.80
2021,04,20,12,20,16.80
2021,04,20,12,21,16.80
2021,04,20,12,22,16.90
2021,04,20,12,23,16.90
2021,04,20,12,24,16.80
2021,04,20,12,25,16.80
2021,04,20,12,26,16.80
2021,04,20,12,27,16.70
2021,04,20,12,28,16.80
2021,04,20,12,29,16.80
2021,04,20,12,30,16.70
2021,04,20,12,31,16.80
2021,04,20,12,32,16.80
2021,04,20,12,33,16.80
2021,04,20,12,34,16.90
2021,04,20,12,35,17.00
2021,04,20,12,36,17.10
2021,04,20,12,37,17.10
2021,04,20,12,38,17.20
2021,04,20,12,39,17.20
2021,04,20,12,40,17.20
2021,04,20,12,41,17.20
2021,04,20,12,42,17.30
2021,04,20,12,43,17.20
2021,04,20,12,44,17.30
2021,04,20,12,45,17.40
2021,04,20,12,46,17.60
2021,04,20,12,47,17.70
2021,04,20,12,48,17.70
2021,04,20,12,49,17.80
2021,04,20,12,50,17.80
2021,04,20,12,51,17.80
2021,04,20,12,52,17.80
2021,04,20,12,53,17.80
2021,04,20,12,54,17.80
2021,04,20,12,55,17.90
2021,04,20,12,56,17.80
2021,04,20,12,57,17.90
2021,04,20,12,58,17.90
2021,04,20,12,59,17.90
2021,04,20,13,00,17.90
2021,04,20,13,01,17.90
2021,04,20,13,02,17.90
2021,04,20,13,03,17.80
2021,04,20,13,04,17.80
2021,04,20,13,05,17.80
2021,04,20,13,06,17.80
2021,04,20,13,07,17.80
2021,04,20,13,08,17.80
2021,04,20,13,09,17.70
2021,04,20,13,10,17.80
2021,04,20,13,11,17.80
2021,04,20,13,12,17.90
2021,04,20,13,13,18.00
2021,04,20,13,14,18.00
2021,04,20,13,15,18.00
2021,04,20,13,16,18.10
2021,04,20,13,17,18.10
2021,04,20,13,18,18.20
2021,04,20,13,19,18.20
2021,04,20,13,20,18.30
2021,04,20,13,21,18.30
2021,04,20,13,22,18.30
2021,04,20,13,23,18.30
2021,04,20,13,24,18.30
2021,04,20,13,25,18.30
2021,04,20,13,26,18.20
2021,04,20,13,27,18.10
2021,04,20,13,28,18.00
2021,04,20,13,29,17.90
2021,04,20,13,30,17.80
2021,04,20,13,31,17.90
2021,04,20,13,32,17.90
2021,04,20,13,33,17.90
2021,04,20,13,34,18.00
2021,04,20,13,35,18.00
2021,04,20,13,36,18.10
2021,04,20,13,37,18.20
2021,04,20,13,38,18.30
2021,04,20,13,39,18.20
2021,04,20,13,40,18.20
2021,04,20,13,41,18.20
2021,04,20,13,42,18.20
2021,04,20,13,43,18.30
2021,04,20,13,44,18.40
2021,04,20,13,45,18.50
2021,04,20,13,46,18.70
2021,04,20,13,47,18.80
2021,04,20,13,48,18.80
2021,04,20,13,49,18.70
2021,04,20,13,50,18.70
2021,04,20,13,51,18.60
2021,04,20,13,52,18.40
2021,04,20,13,53,18.30
2021,04,20,13,54,18.20
2021,04,20,13,55,18.20
2021,04,20,13,56,18.10
2021,04,20,13,57,18.10
2021,04,20,13,58,18.20
2021,04,20,13,59,18.20
2021,04,20,14,00,18.30
2021,04,20,14,01,18.40
2021,04,20,14,02,18.40
2021,04,20,14,03,18.40
2021,04,20,14,04,18.40
2021,04,20,14,05,18.60
2021,04,20,14,06,18.70
2021,04,20,14,07,18.80
2021,04,20,14,08,18.90
2021,04,20,14,09,19.00
2021,04,20,14,10,19.20
2021,04,20,14,11,19.30
2021,04,20,14,12,19.40
2021,04,20,14,13,19.50
2021,04,20,14,14,19.50
2021,04,20,14,15,19.40
2021,04,20,14,16,19.30
2021,04,20,14,17,19.20
2021,04,20,14,18,19.10
2021,04,20,14,19,19.00
2021,04,20,14,20,19.00
2021,04,20,14,21,19.00
2021,04,20,14,22,19.10
2021,04,20,14,23,19.10
2021,04,20,14,24,19.10
2021,04,20,14,25,19.10
2021,04,20,14,26,19.00
2021,04,20,14,27,18.80
2021,04,20,14,28,18.70
2021,04,20,14,29,18.70
2021,04,20,14,30,18.60
2021,04,20,14,31,18.50
2021,04,20,14,32,18.50
2021,04,20,14,33,18.60
2021,04,20,14,34,18.60
2021,04,20,14,35,18.60
2021,04,20,14,36,18.70
2021,04,20,14,37,18.80
2021,04,20,14,38,18.80
2021,04,20,14,39,18.90
2021,04,20,14,40,18.90
2021,04,20,14,41,18.80
2021,04,20,14,42,18.90
2021,04,20,14,43,18.90
2021,04,20,14,44,18.90
2021,04,20,14,45,18.90
2021,04,20,14,46,18.90
2021,04,20,14,47,19.00
2021,04,20,14,48,18.90
2021,04,20,14,49,18.90
2021,04,20,14,50,18.90
2021,04,20,14,51,19.00
2021,04,20,14,52,19.00
2021,04,20,14,53,19.10
2021,04,20,14,54,19.20
2021,04,20,14,55,19.30
2021,04,20,14,56,19.30
2021,04,20,14,57,19.30
2021,04,20,14,58,19.40
2021,04,20,14,59,19.50
2021,04,20,15,00,19.50
2021,04,20,15,01,19.50
2021,04,20,15,02,19.40
2021,04,20,15,03,19.40
2021,04,20,15,04,19.40
2021,04,20,15,05,19.40
2021,04,20,15,06,19.40
2021,04,20,15,07,19.30
2021,04,20,15,08,19.20
2021,04,20,15,09,19.10
2021,04,20,15,10,19.10
2021,04,20,15,11,19.10
2021,04,20,15,12,19.10
2021,04,20,15,13,19.20
2021,04,20,15,14,19.30
2021,04,20,15,15,19.30
2021,04,20,15,16,19.20
2021,04,20,15,17,19.20
2021,04,20,15,18,19.20
2021,04,20,15,19,19.20
2021,04,20,15,20,19.30
2021,04,20,15,21,19.40
2021,04,20,15,22,19.50
2021,04,20,15,23,19.60
2021,04,20,15,24,19.70
2021,04,20,15,25,19.80
2021,04,20,15,26,19.90
2021,04,20,15,27,20.00
2021,04,20,15,28,19.90
2021,04,20,15,29,19.90
2021,04,20,15,30,19.80
2021,04,20,15,31,19.70
2021,04,20,15,32,19.70
2021,04,20,15,33,19.70
2021,04,20,15,34,19.70
2021,04,20,15,35,19.70
2021,04,20,15,36,19.70
2021,04,20,15,37,19.60
2021,04,20,15,38,19.60
2021,04,20,15,39,19.60
2021,04,20,15,40,19.60
2021,04,20,15,41,19.70
2021,04,20,15,42,19.90
2021,04,20,15,43,20.00
2021,04,20,15,44,20.10
2021,04,20,15,45,20.10
2021,04,20,15,46,20.20
2021,04,20,15,47,20.10
2021,04,20,15,48,20.10
2021,04,20,15,49,20.00
2021,04,20,15,50,20.00
2021,04,20,15,51,20.00
2021,04,20,15,52,20.10
2021,04,20,15,53,20.10
2021,04,20,15,54,20.10
2021,04,20,15,55,20.20
2021,04,20,15,56,20.20
2021,04,20,15,57,20.20
2021,04,20,15,58,20.30
2021,04,20,15,59,20.30
2021,04,20,16,00,20.30
2021,04,20,16,01,20.30
2021,04,20,16,02,20.40
2021,04,20,16,03,20.50
2021,04,20,16,04,20.50
2021,04,20,16,05,20.60
2021,04,20,16,06,20.70
2021,04,20,16,07,20.70
2021,04,20,16,08,20.70
2021,04,20,16,09,20.60
2021,04,20,16,10,20.60
2021,04,20,16,11,20.50
2021,04,20,16,12,20.40
2021,04,20,16,13,20.40
2021,04,20,16,14,20.30
2021,04,20,16,15,20.30
2021,04,20,16,16,20.30
2021,04,20,16,17,20.30
2021,04,20,16,18,20.30
2021,04,20,16,19,20.40
2021,04,20,16,20,20.50
2021,04,20,16,21,20.60
2021,04,20,16,22,20.60
2021,04,20,16,23,20.70
2021,04,20,16,24,20.70
2021,04,20,16,25,20.70
2021,04,20,16,26,20.80
2021,04,20,16,27,20.80
2021,04,20,16,28,20.80
2021,04,20,16,29,20.80
2021,04,20,16,30,20.80
2021,04,20,16,31,20.70
2021,04,20,16,32,20.60
2021,04,20,16,33,20.60
2021,04,20,16,34,20.60
2021,04,20,16,35,20.50
2021,04,20,16,36,20.50
2021,04,20,16,37,20.50
2021,04,20,16,38,20.50
2021,04,20,16,39,20.60
2021,04,20,16,40,20.60
2021,04,20,16,41,20.60
2021,04,20,16,42,20.70
2021,04,20,16,43,20.80
2021,04,20,16,44,20.90
2021,04,20,16,45,20.90
2021,04,20,16,46,20.90
2021,04,20,16,47,20.90
2021,04,20,16,48,20.90
2021,04,20,16,49,20.90
2021,04,20,16,50,20.90
2021,04,20,16,51,20.80
2021,04,20,16,52,20.80
2021,04,20,16,53,20.80
2021,04,20,16,54,20.80
2021,04,20,16,55,20.80
2021,04,20,16,56,20.80
2021,04,20,16,57,20.70
2021,04,20,16,58,20.70
2021,04,20,16,59,20.70
2021,04,20,17,00,20.70
2021,04,20,17,01,20.70
2021,04,20,17,02,20.60
2021,04,20,17,03,20.50
2021,04,20,17,04,20.50
2021,04,20,17,05,20.40
2021,04,20,17,06,20.40
2021,04,20,17,07,20.40
2021,04,20,17,08,20.40
2021,04,20,17,09,20.40
2021,04,20,17,10,20.40
2021,04,20,17,11,20.40
2021,04,20,17,12,20.40
2021,04,20,17,13,20.40
2021,04,20,17,14,20.40
2021,04,20,17,15,20.40
2021,04,20,17,16,20.40
2021,04,20,17,17,20.40
2021,04,20,17,18,20.40
2021,04,20,17,19,20.40
2021,04,20,17,20,20.40
2021,04,20,17,21,20.40
2021,04,20,17,22,20.40
2021,04,20,17,23,20.40
2021,04,20,17,24,20.40
2021,04,20,17,25,20.40
2021,04,20,17,26,20.40
2021,04,20,17,27,20.30
2021,04,20,17,28,20.30
2021,04,20,17,29,20.30